Location: Newark
(13.3167°N, 169.1500°W)
Time: 18:57:14
(UTC+00:00)

ISS - Visible Passes

Search period start: 18 October 2019 00:00
Search period end: 28 October 2019 00:00
Orbit: 411 x 421 km, 51.6° (Epoch: 19 October)

Date Brightness Start Highest point End Pass type
(mag) Time Alt. Az. Time Alt. Az. Time Alt. Az.
19 Oct -1.0 16:19:31 10° S 16:22:06 21° SE 16:24:42 10° ENE visible
21 Oct -3.9 16:18:14 10° SW 16:21:35 75° NW 16:24:56 10° NNE visible
22 Oct -2.6 15:33:08 42° ESE 15:33:08 42° ESE 15:36:17 10° NE visible
23 Oct -2.0 16:21:11 16° NW 16:21:11 16° NW 16:23:21 10° N visible
